Location: Gajan
(43.0218°N, 1.1244°E)
Time: 16:10:49
(UTC+00:00)

SJ-6B - Pass Details

Date: 22 April 2021
Orbit: 510 x 579 km, 97.6° (Epoch: 12 May)

Event Time Altitude Azimuth Distance (km) Brightness Sun altitude
Exits shadow 19:12:34 - 146° (SSE) 2,412 5.6 -5.3°
Reaches altitude 10° 19:14:16 10° 139° (SE) 1,729 4.8 -5.6°
Maximum altitude 19:17:43 37° 72° (ENE) 813 3.3 -6.2°
Drops below altitude 10° 19:21:13 10° 4° (N) 1,759 5.7 -6.8°
Sets 19:23:26 0° 356° (N) 2,661 6.7 -7.1°
